DW4604 Weather Reports


time (UTC)temp
C
wind
direction
speed
KPH
gust
KPH
rain 1hr
cm
rain 24hr
cm
rain mn
cm
humidity
%
barometer
mb
20240527191001 18 0 0.0 0.0 0.00 0.03 0.00 69 1016.7
20240527190503 18 0 0.0 0.0 0.00 0.03 0.00 68 1016.6
20240527190001 18 0 0.0 0.0 0.00 0.05 0.00 67 1016.7
20240527185502 19 0 0.0 0.0 0.00 0.05 0.00 64 1016.7
20240527185002 20 0 0.0 0.0 0.00 0.08 0.00 63 1016.7
20240527184002 21 0 0.0 0.0 0.00 0.08 0.00 59 1016.5
20240527183003 21 0 0.0 0.0 0.00 0.08 0.00 58 1016.6
20240527182501 21 0 0.0 0.0 0.00 0.08 0.00 58 1016.3
20240527182001 22 0 0.0 0.0 0.00 0.08 0.00 54 1016.4
20240527181501 22 0 0.0 0.0 0.00 0.08 0.00 52 1016.4
20240527180502 21 0 0.0 0.0 0.00 0.08 0.00 50 1016.4
20240527180002 21 0 0.0 0.0 0.00 0.08 0.00 49 1016.2
20240527175501 22 0 0.0 0.0 0.00 0.08 0.00 49 1016.1
20240527175001 22 0 0.0 0.0 0.00 0.08 0.00 48 1016.1
20240527174503 22 0 0.0 0.0 0.00 0.08 0.00 48 1016.1
20240527174002 22 0 0.0 0.0 0.00 0.08 0.00 47 1016.1
20240527173502 22 0 0.0 0.0 0.00 0.08 0.00 46 1016.1
20240527173001 23 0 0.0 0.0 0.00 0.08 0.00 45 1016.1
20240527172503 23 0 0.0 0.0 0.00 0.08 0.00 45 1016.1
20240527172002 23 0 0.0 0.0 0.00 0.08 0.00 43 1016.1
20240527171502 24 0 0.0 0.0 0.00 0.08 0.00 42 1016.1
20240527171002 24 0 0.0 0.0 0.00 0.08 0.00 43 1016.2
20240527170503 24 0 0.0 0.0 0.00 0.08 0.00 39 1016.1
20240527170002 24 0 0.0 0.0 0.00 0.08 0.00 41 1016.1
20240527165501 25 0 0.0 0.0 0.00 0.08 0.00 39 1016.0
20240527165002 25 0 0.0 0.0 0.00 0.08 0.00 41 1016.1
20240527164502 25 0 0.0 0.0 0.00 0.08 0.00 40 1016.1
20240527164002 25 0 0.0 0.0 0.00 0.08 0.00 42 1016.0
20240527163502 25 0 0.0 0.0 0.00 0.08 0.00 38 1016.1
20240527163003 25 0 0.0 0.0 0.00 0.08 0.00 38 1016.1
20240527162502 25 0 0.0 0.0 0.00 0.08 0.00 38 1016.1
20240527162003 25 0 0.0 0.0 0.00 0.08 0.00 37 1016.1
20240527161501 25 0 0.0 0.0 0.00 0.08 0.00 37 1016.1
20240527161002 26 0 0.0 0.0 0.00 0.08 0.00 36 1016.1
20240527160502 26 0 0.0 0.0 0.00 0.08 0.00 37 1016.2
20240527160002 26 0 0.0 0.0 0.00 0.08 0.00 39 1016.1
20240527155501 26 0 0.0 0.0 0.00 0.08 0.00 37 1016.2
20240527155002 26 0 0.0 0.0 0.00 0.08 0.00 39 1016.2
20240527154502 26 0 0.0 0.0 0.00 0.08 0.00 35 1016.1
20240527154003 26 0 0.0 0.0 0.00 0.08 0.00 38 1016.2
20240527153003 26 0 0.0 0.0 0.00 0.08 0.00 37 1016.2
20240527152502 26 0 0.0 0.0 0.00 0.08 0.00 36 1016.2
20240527152002 26 0 0.0 0.0 0.00 0.08 0.00 36 1016.2
20240527151502 27 0 0.0 0.0 0.00 0.08 0.00 38 1016.3
20240527151002 27 0 0.0 0.0 0.00 0.08 0.00 37 1016.3
20240527150503 27 0 0.0 0.0 0.00 0.08 0.00 37 1016.2
20240527150003 27 0 0.0 0.0 0.00 0.08 0.00 35 1016.2
20240527145502 27 0 0.0 0.0 0.00 0.08 0.00 35 1016.2
20240527145002 27 0 0.0 0.0 0.00 0.08 0.00 38 1016.3
20240527144502 27 0 0.0 0.0 0.00 0.08 0.00 35 1016.2
20240527143503 27 0 0.0 0.0 0.00 0.08 0.00 34 1016.4
20240527143002 27 0 0.0 0.0 0.00 0.08 0.00 36 1016.5
20240527142502 27 0 0.0 0.0 0.00 0.08 0.00 37 1016.5
20240527142003 27 0 0.0 0.0 0.00 0.08 0.00 37 1016.5
20240527141003 27 0 0.0 0.0 0.00 0.08 0.00 35 1016.6
20240527140504 27 0 0.0 0.0 0.00 0.08 0.00 37 1016.6
20240527135502 27 0 0.0 0.0 0.00 0.08 0.00 38 1016.8
20240527135004 27 0 0.0 0.0 0.00 0.08 0.00 40 1016.9
20240527134503 27 0 0.0 0.0 0.00 0.08 0.00 36 1016.9
20240527134002 27 0 0.0 0.0 0.00 0.08 0.00 41 1016.9
20240527133502 28 0 0.0 0.0 0.00 0.08 0.00 36 1017.0
20240527133002 28 0 0.0 0.0 0.00 0.08 0.00 37 1017.0
20240527132004 28 0 0.0 0.0 0.00 0.08 0.00 30 1017.1
20240527131503 28 0 0.0 0.0 0.00 0.08 0.00 32 1017.1
20240527131002 28 0 0.0 0.0 0.00 0.08 0.00 34 1017.2
20240527130502 28 0 0.0 0.0 0.00 0.08 0.00 31 1017.3
20240527130003 28 0 0.0 0.0 0.00 0.08 0.00 30 1017.4
20240527125503 28 0 0.0 0.0 0.00 0.08 0.00 32 1017.3
20240527124502 28 0 0.0 0.0 0.00 0.08 0.00 30 1017.5
20240527124002 28 0 0.0 0.0 0.00 0.08 0.00 31 1017.5
20240527122502 27 0 0.0 0.0 0.00 0.08 0.00 33 1017.6
20240527122003 27 0 0.0 0.0 0.00 0.08 0.00 31 1017.7
20240527121503 28 0 0.0 0.0 0.00 0.08 0.00 35 1017.8
20240527121003 28 0 0.0 0.0 0.00 0.08 0.00 38 1017.9
20240527120503 27 0 0.0 0.0 0.00 0.08 0.00 37 1017.8
20240527120003 28 0 0.0 0.0 0.00 0.08 0.00 38 1017.8
20240527115003 27 0 0.0 0.0 0.00 0.08 0.00 42 1018.0
20240527114503 27 0 0.0 0.0 0.00 0.08 0.00 35 1017.9
20240527114003 27 0 0.0 0.0 0.00 0.08 0.00 37 1018.1
20240527113503 27 0 0.0 0.0 0.00 0.08 0.00 39 1018.0
20240527113003 27 0 0.0 0.0 0.00 0.08 0.00 37 1018.1
20240527112503 27 0 0.0 0.0 0.00 0.08 0.00 38 1018.2
20240527112004 27 0 0.0 0.0 0.00 0.08 0.00 37 1018.3
20240527111503 27 0 0.0 0.0 0.00 0.08 0.00 38 1018.3
20240527111002 27 0 0.0 0.0 0.00 0.08 0.00 40 1018.4
20240527110503 27 0 0.0 0.0 0.00 0.08 0.00 46 1018.5
20240527110003 27 0 0.0 0.0 0.00 0.08 0.00 43 1018.5
20240527105504 27 0 0.0 0.0 0.00 0.08 0.00 47 1018.5
20240527105003 27 0 0.0 0.0 0.00 0.08 0.00 46 1018.6
20240527104504 27 0 0.0 0.0 0.00 0.08 0.00 50 1018.7
20240527104003 26 0 0.0 0.0 0.00 0.08 0.00 49 1018.7
20240527103502 26 0 0.0 0.0 0.00 0.08 0.00 49 1018.7
20240527103003 27 0 0.0 0.0 0.00 0.08 0.00 52 1018.8
20240527102503 26 0 0.0 0.0 0.00 0.08 0.00 51 1018.9
20240527102003 26 0 0.0 0.0 0.00 0.08 0.00 53 1018.9
20240527101503 26 0 0.0 0.0 0.00 0.08 0.00 50 1018.9
20240527101003 26 0 0.0 0.0 0.00 0.08 0.00 51 1018.9
20240527100502 26 0 0.0 0.0 0.00 0.08 0.00 52 1019.0
20240527095003 26 0 0.0 0.0 0.00 0.08 0.00 57 1019.1
20240527094003 25 0 0.0 0.0 0.00 0.08 0.00 53 1019.1
20240527093004 25 0 0.0 0.0 0.00 0.08 0.00 55 1019.2
20240527091503 25 0 0.0 0.0 0.00 0.08 0.00 53 1019.2
20240527091004 25 0 0.0 0.0 0.00 0.08 0.00 57 1019.4
20240527090503 25 0 0.0 0.0 0.00 0.08 0.00 58 1019.5
20240527090003 24 0 0.0 0.0 0.00 0.08 0.00 59 1019.5
20240527085503 24 0 0.0 0.0 0.00 0.08 0.00 55 1019.5
20240527085004 25 0 0.0 0.0 0.00 0.08 0.00 59 1019.5
20240527084505 24 0 0.0 0.0 0.00 0.08 0.00 56 1019.5
20240527084004 24 0 0.0 0.0 0.00 0.08 0.00 63 1019.6
20240527083503 24 0 0.0 0.0 0.00 0.08 0.00 62 1019.6
20240527083004 24 0 0.0 0.0 0.00 0.08 0.00 65 1019.6
20240527082503 23 0 0.0 0.0 0.00 0.08 0.00 61 1019.6
20240527082003 23 0 0.0 0.0 0.00 0.08 0.00 59 1019.7
20240527081504 23 0 0.0 0.0 0.00 0.08 0.00 63 1019.7
20240527081005 23 0 0.0 0.0 0.00 0.08 0.00 63 1019.7
20240527080505 23 0 0.0 0.0 0.00 0.08 0.00 66 1019.7
20240527075504 22 0 0.0 0.0 0.00 0.08 0.00 65 1019.7
20240527074504 22 0 0.0 0.0 0.00 0.08 0.00 66 1019.7
20240527074005 22 0 0.0 0.0 0.00 0.08 0.00 69 1019.8
20240527073504 21 0 0.0 0.0 0.00 0.08 0.00 70 1019.8
20240527073004 21 0 0.0 0.0 0.00 0.08 0.00 74 1019.8
20240527072504 21 0 0.0 0.0 0.00 0.08 0.00 73 1019.9
20240527072004 20 0 0.0 0.0 0.00 0.08 0.00 74 1019.9
20240527071505 20 0 0.0 0.0 0.00 0.08 0.00 73 1019.9
20240527071005 20 0 0.0 0.0 0.00 0.08 0.00 75 1019.9
20240527070503 20 0 0.0 0.0 0.00 0.08 0.00 76 1020.0
20240527070004 20 0 0.0 0.0 0.00 0.08 0.00 77 1019.8
20240527065004 19 0 0.0 0.0 0.00 0.08 0.00 79 1020.0
20240527064504 19 0 0.0 0.0 0.00 0.08 0.00 79 1020.0
20240527064004 18 0 0.0 0.0 0.00 0.08 0.00 79 1020.0
20240527063504 18 0 0.0 0.0 0.00 0.08 0.00 82 1020.1
20240527063004 18 0 0.0 0.0 0.00 0.08 0.00 84 1020.1
20240527062504 17 0 0.0 0.0 0.00 0.08 0.00 86 1020.1
20240527062005 17 0 0.0 0.0 0.00 0.08 0.00 87 1020.1
20240527061504 17 0 0.0 0.0 0.00 0.08 0.00 89 1020.0
20240527061004 16 0 0.0 0.0 0.00 0.08 0.00 91 1020.0
20240527060004 16 0 0.0 0.0 0.00 0.08 0.00 93 1020.0
20240527055504 15 0 0.0 0.0 0.00 0.08 0.00 94 1019.9
20240527054503 15 0 0.0 0.0 0.00 0.08 0.00 95 1020.0
20240527054004 15 0 0.0 0.0 0.00 0.08 0.00 95 1019.9
20240527053504 15 0 0.0 0.0 0.00 0.08 0.00 95 1020.0
20240527052504 14 0 0.0 0.0 0.00 0.08 0.00 95 1020.0
20240527052005 14 0 0.0 0.0 0.00 0.08 0.00 95 1019.9
20240527051504 14 0 0.0 0.0 0.00 0.08 0.00 95 1019.9
20240527051004 13 0 0.0 0.0 0.00 0.08 0.00 95 1020.0
20240527050504 13 0 0.0 0.0 0.00 0.08 0.00 95 1020.0
20240527050004 13 0 0.0 0.0 0.00 0.08 0.00 95 1019.9
20240527045504 13 0 0.0 0.0 0.00 0.08 0.00 96 1019.9
20240527044504 13 0 0.0 0.0 0.00 0.08 0.00 95 1019.8
20240527044004 13 0 0.0 0.0 0.00 0.08 0.00 95 1019.7
20240527043505 13 0 0.0 0.0 0.00 0.08 0.00 95 1019.7
20240527041005 11 0 0.0 0.0 0.00 0.08 0.00 95 1019.5
20240527040505 11 0 0.0 0.0 0.00 0.08 0.00 95 1019.5
20240527040004 11 0 0.0 0.0 0.00 0.08 0.00 95 1019.5
20240527035504 11 0 0.0 0.0 0.00 0.08 0.00 95 1019.5
20240527035006 11 0 0.0 0.0 0.00 0.08 0.00 95 1019.4
20240527034505 11 0 0.0 0.0 0.00 0.08 0.00 95 1019.4
20240527034004 11 0 0.0 0.0 0.00 0.08 0.00 95 1019.3
20240527033504 10 0 0.0 0.0 0.00 0.08 0.00 95 1019.4
20240527033004 10 0 0.0 0.0 0.00 0.08 0.00 95 1019.4
20240527032504 10 0 0.0 0.0 0.00 0.08 0.00 95 1019.4
20240527032006 10 0 0.0 0.0 0.00 0.08 0.00 95 1019.3
20240527031505 10 0 0.0 0.0 0.00 0.08 0.00 95 1019.4
20240527031004 10 0 0.0 0.0 0.00 0.08 0.00 95 1019.3
20240527030504 10 0 0.0 0.0 0.00 0.08 0.00 95 1019.4
20240527030005 10 0 0.0 0.0 0.00 0.08 0.00 95 1019.4
20240527025505 10 0 0.0 0.0 0.00 0.08 0.00 95 1019.4
20240527025004 10 0 0.0 0.0 0.00 0.08 0.00 94 1019.4
20240527024504 10 0 0.0 0.0 0.00 0.08 0.00 94 1019.4
20240527024004 10 0 0.0 0.0 0.00 0.08 0.00 94 1019.4
20240527023505 10 0 0.0 0.0 0.00 0.08 0.00 94 1019.4
20240527023005 10 0 0.0 0.0 0.00 0.08 0.00 95 1019.3
20240527022005 10 0 0.0 0.0 0.00 0.08 0.00 94 1019.4
20240527021505 10 0 0.0 0.0 0.00 0.08 0.00 94 1019.3
20240527021005 11 0 0.0 0.0 0.00 0.08 0.00 95 1019.3
20240527020504 11 0 0.0 0.0 0.00 0.08 0.00 94 1019.4
20240527020005 11 0 0.0 0.0 0.00 0.08 0.00 94 1019.3
20240527015504 11 0 0.0 0.0 0.00 0.08 0.00 94 1019.4
20240527015005 11 0 0.0 0.0 0.00 0.08 0.00 95 1019.4
20240527014005 11 0 0.0 0.0 0.00 0.08 0.00 94 1019.4
20240527013005 11 0 0.0 0.0 0.00 0.08 0.00 94 1019.4
20240527012505 11 0 0.0 0.0 0.00 0.08 0.00 94 1019.4
20240527012005 11 0 0.0 0.0 0.00 0.08 0.00 94 1019.4
20240527011504 11 0 0.0 0.0 0.00 0.08 0.00 94 1019.5
20240527011004 11 0 0.0 0.0 0.00 0.08 0.00 94 1019.5
20240527010505 11 0 0.0 0.0 0.00 0.08 0.00 94 1019.4
20240527010005 11 0 0.0 0.0 0.00 0.08 0.00 94 1019.5
20240527005505 11 0 0.0 0.0 0.00 0.08 0.00 94 1019.5
20240527005005 11 0 0.0 0.0 0.00 0.08 0.00 94 1019.6
20240527004505 11 0 0.0 0.0 0.00 0.08 0.00 94 1019.5
20240527004005 11 0 0.0 0.0 0.00 0.08 0.00 94 1019.7
20240527003005 11 0 0.0 0.0 0.00 0.08 0.00 94 1019.7
20240527002505 12 0 0.0 0.0 0.00 0.08 0.00 94 1019.7
20240527002006 12 0 0.0 0.0 0.00 0.08 0.00 94 1019.7
20240527001505 12 0 0.0 0.0 0.00 0.08 0.00 94 1019.7
20240527000505 11 0 0.0 0.0 0.00 0.08 0.00 94 1019.7
20240526235005 12 0 0.0 0.0 0.00 0.08 0.00 94 1019.7
20240526234005 12 0 0.0 0.0 0.00 0.08 0.00 94 1019.9
20240526233505 12 0 0.0 0.0 0.00 0.08 0.00 94 1019.7
20240526233005 12 0 0.0 0.0 0.00 0.08 0.00 94 1019.7
20240526232505 12 0 0.0 0.0 0.00 0.08 0.00 94 1019.8
20240526232005 12 0 0.0 0.0 0.00 0.08 0.00 94 1019.8
20240526231506 12 0 0.0 0.0 0.00 0.08 0.00 94 1019.8
20240526231005 13 0 0.0 0.0 0.00 0.08 0.00 94 1019.8
20240526230505 13 0 0.0 0.0 0.00 0.08 0.00 94 1019.9
20240526230001 13 0 0.0 0.0 0.00 0.08 0.00 94 1019.8
20240526225500 13 0 0.0 0.0 0.00 0.08 0.00 94 1019.9
20240526225001 13 0 0.0 0.0 0.00 0.08 0.00 94 1019.9
20240526224501 13 0 0.0 0.0 0.00 0.08 0.00 94 1020.0
20240526224000 13 0 0.0 0.0 0.00 0.08 0.00 94 1019.9
20240526223501 13 0 0.0 0.0 0.00 0.08 0.00 94 1019.9
20240526223002 13 0 0.0 0.0 0.00 0.08 0.00 94 1019.9
20240526222501 14 0 0.0 0.0 0.00 0.08 0.00 94 1020.0
20240526222000 14 0 0.0 0.0 0.00 0.08 0.00 94 1019.9
20240526221501 14 0 0.0 0.0 0.00 0.08 0.00 94 1020.0
20240526220501 14 0 0.0 0.0 0.00 0.08 0.00 94 1020.0
20240526220002 14 0 0.0 0.0 0.00 0.08 0.00 94 1020.0
20240526215501 14 0 0.0 0.0 0.00 0.08 0.08 94 1020.1
20240526215002 14 0 0.0 0.0 0.00 0.08 0.08 94 1020.1
20240526214500 14 0 0.0 0.0 0.00 0.08 0.08 94 1020.1
20240526214000 15 0 0.0 0.0 0.00 0.08 0.08 94 1020.1
20240526213001 15 0 0.0 0.0 0.00 0.08 0.08 94 1019.9
20240526212501 15 0 0.0 0.0 0.00 0.08 0.08 94 1019.9
20240526212001 15 0 0.0 0.0 0.00 0.08 0.08 94 1019.8
20240526211502 15 0 0.0 0.0 0.03 0.08 0.08 94 1019.8
20240526211001 15 0 0.0 0.0 0.03 0.08 0.08 94 1019.8
20240526210501 15 0 0.0 0.0 0.03 0.08 0.08 94 1019.7
20240526210002 15 0 0.0 0.0 0.03 0.08 0.08 94 1019.8
20240526205501 15 0 0.0 0.0 0.03 0.08 0.08 94 1019.8
20240526205001 15 0 0.0 0.0 0.03 0.08 0.08 94 1019.7
20240526204501 15 0 0.0 0.0 0.03 0.08 0.08 93 1019.8
20240526204001 15 0 0.0 0.0 0.03 0.08 0.08 93 1019.7
20240526203001 15 0 0.0 0.0 0.03 0.08 0.08 93 1019.8
20240526202502 15 0 0.0 0.0 0.03 0.08 0.08 93 1019.9
20240526202002 15 0 0.0 0.0 0.03 0.08 0.08 93 1019.8
20240526201502 15 0 0.0 0.0 0.00 0.05 0.05 93 1019.8
20240526201001 15 0 0.0 0.0 0.00 0.05 0.05 92 1019.8
20240526200001 15 0 0.0 0.0 0.03 0.05 0.05 92 1019.8
20240526195501 15 0 0.0 0.0 0.05 0.05 0.05 92 1019.9
20240526195003 15 0 0.0 0.0 0.05 0.05 0.05 92 1020.0
20240526194501 15 0 0.0 0.0 0.05 0.05 0.05 91 1019.9
20240526194002 15 0 0.0 0.0 0.05 0.05 0.05 91 1019.9
20240526193001 15 0 0.0 0.0 0.05 0.05 0.05 90 1019.9
20240526192503 15 0 0.0 0.0 0.05 0.05 0.05 90 1020.0
20240526191502 15 0 0.0 0.0 0.05 0.05 0.05 88 1019.8